Regional Weather Roundup
Issued by NWS

Home | Current Version | Previous Version | Graphics & Text | Print | Product List | Glossary On
Versions: 1 2 3 4 5 6 7 8 9 10 11 12 13 14 15 16 17 18 19 20 21 22 23 24 25 26 27 28 29 30 31 32 33 34 35 36 37 38 39 40 41 42 43 44 45 46 47 48 49 50
000
ASUS43 KFSD 272110
RWRSD

WEATHER ROUNDUP FOR SOUTH DAKOTA
NATIONAL WEATHER SERVICE SIOUX FALLS SD
400 PM CDT WED AUG 27 2014

NOTE: "FAIR" INDICATES FEW OR NO CLOUDS BELOW 12,000 FEET WITH NO
SIGNIFICANT WEATHER AND/OR OBSTRUCTIONS TO VISIBILITY.


SDZ001>005-009-010-012>017-272200-
NORTHWEST AND NORTH CENTRAL SOUTH DAKOTA

CITY           SKY/WX    TMP DP  RH WIND       PRES   REMARKS
BUFFALO          N/A     78  58  49 E12       30.01F
FAITH            N/A     67  63  87 SE10      30.09F
MOBRIDGE       CLOUDY    68  62  81 SE8       30.07F
$$

SDZ012>016-024>037-041>051-057-063-072>074-272200-
SOUTHWEST AND SOUTH CENTRAL SOUTH DAKOTA

CITY           SKY/WX    TMP DP  RH WIND       PRES   REMARKS
RAPID CTY ARPT CLOUDY    73  62  68 SE9       30.09S
PIERRE         CLOUDY    77  66  68 SE13      30.03F
CUSTER         CLOUDY    65  57  75 E8        30.20S
ELLSWORTH AFB  CLOUDY    73  63  68 SE8       30.09S
PHILIP         CLOUDY    71  67  87 E7        30.04F
PINE RIDGE     CLOUDY    69  64  84 N14       30.04F
WINNER         MOCLDY    77  66  68 SE16      30.06F
$$

SDZ004>011-016>023-039-040-272200-
NORTHEAST SOUTH DAKOTA

CITY           SKY/WX    TMP DP  RH WIND       PRES   REMARKS
ABERDEEN       CLOUDY    70  59  68 SE10      30.11F
WATERTOWN      PTSUNNY   73  59  61 SE7       30.12F
SISSETON         N/A     74  60  61 SE12      30.12F
$$

SDZ017-020-022-023-036>040-048>070-272200-
SOUTHEAST SOUTH DAKOTA

CITY           SKY/WX    TMP DP  RH WIND       PRES   REMARKS
SIOUX FALLS    PTSUNNY   73  64  73 SE12      30.12S
HURON          PTSUNNY   78  64  61 SE9       30.07F
CHAMBERLAIN    PTSUNNY   76  66  71 SE13G18   30.07F
MITCHELL       CLOUDY    76  66  71 S15       30.09F
YANKTON        CLOUDY    68  64  88 SE8       30.11S
$$

ABBREVIATIONS USED IN REMARKS
   TC - TEMPERATURE IN CELSIUS
  WCI - WIND CHILL INDEX
   HX - HEAT INDEX
  VSB - VISIBILITY




USA.gov is the U.S. government's official web portal to all federal, state and local government web resources and services.